Location: El Bakhil
(32.7726°N, 5.5387°W)
Time: 05:06:21
(UTC+00:00)

Cosmos 1486 Rocket - Pass Details

Date: 03 March 2021
Orbit: 758 x 784 km, 74.1° (Epoch: 12 April)

Event Time Altitude Azimuth Distance (km) Brightness Sun altitude
Rises 19:36:58 0° 339° (NNW) 3,255 7.6 -16.7°
Reaches altitude 10° 19:39:22 10° 337° (NNW) 2,328 6.8 -17.2°
Maximum altitude 19:44:36 66° 256° (WSW) 850 4.4 -18.3°
Drops below altitude 10° 19:49:51 10° 175° (S) 2,327 6.4 -19.4°
Sets 19:52:14 0° 172° (S) 3,254 7.1 -19.9°
